Regional Weather Roundup
Issued by NWS

Home | Current Version | Previous Version | Graphics & Text | Print | Product List | Glossary On
Versions: 1 2 3 4 5 6 7 8 9 10 11 12 13 14 15 16 17 18 19 20 21 22 23 24 25 26 27 28 29 30 31 32 33 34 35 36 37 38 39 40 41 42 43 44 45 46 47 48 49 50
503
ASUS43 KMKX 040911
RWRWI

WISCONSIN REGIONAL WEATHER ROUNDUP
NATIONAL WEATHER SERVICE MILWAUKEE/SULLIVAN WI
400 AM CDT WED MAY 04 2016

NOTE: "FAIR" INDICATES FEW OR NO CLOUDS BELOW 12,000 FEET WITH NO
SIGNIFICANT WEATHER AND/OR OBSTRUCTIONS TO VISIBILITY.

WIZ001-002-006>008-014>016-023>028-041000-
NORTHWEST WISCONSIN

CITY           SKY/WX    TMP DP  RH WIND       PRES   REMARKS
SUPERIOR ARPT  CLEAR     45  32  61 N10       29.91R
ASHLAND        CLEAR     37  32  82 N3        29.88R
HAYWARD        CLEAR     33  28  81 CALM      29.88R
SIREN          CLEAR     37  30  78 CALM      29.91R
CUMBERLAND     CLEAR     37  32  81 NW6       29.89R WCI  33
RICE LAKE      CLEAR     42  32  69 NW3       29.89S
CHETEK         CLEAR     43  35  72 NW5       29.88R
LADYSMITH      PTCLDY    40  34  79 NW7       29.87R
EAU CLAIRE     CLEAR     42  34  73 N6        29.86R
MENOMONIE      CLEAR     43  32  63 NW3       29.88R
NEW RICHMOND   CLEAR     44  32  62 N7        29.91R
OSCEOLA        CLEAR     44  33  63 CALM      29.94R
$$

WIZ003>005-009-010-017-018-041000-
NORTH CENTRAL WISCONSIN

CITY           SKY/WX    TMP DP  RH WIND       PRES   REMARKS
MANITOWISH WTR CLOUDY    41  36  83 N7        29.81R
ARBOR VITAE    CLOUDY    42  36  80 N14G20    29.80S
WOODRUFF       CLOUDY    42  36  80 N14G20    29.80S
RHINELANDER    CLOUDY    41  34  76 VRB5      29.79S
EAGLE RIVER    LGT RAIN  39  34  81 N13G20    29.79R WCI  31
LAND O LAKES   DRIZZLE   39  35  87 N13G18    29.81R WCI  31
PHILLIPS       CLOUDY    42  35  76 NW6       29.82R
TOMAHAWK       MOCLDY    37  35  90 NW5       29.80S WCI  34
MEDFORD        CLEAR     37  36  95 NW8       29.81R WCI  31
MERRILL        CLEAR     37  37 100 NW3       29.80S
$$

WIZ029-030-035-036-043>047-041000-
CENTRAL WISCONSIN

CITY           SKY/WX    TMP DP  RH WIND       PRES   REMARKS
WAUSAU         CLEAR     42  36  79 NW6       29.77S
MOSINEE        CLEAR     39  36  87 N8        29.80R WCI  34
MARSHFIELD     MOCLDY    43  35  73 N12       29.80R
STEVENS POINT  CLOUDY    39  36  87 N8        29.79R WCI  34
WAUPACA        CLEAR     44  40  86 N9        29.76R
WAUTOMA        CLEAR     43  40  89 N8        29.76R
WISC RAPIDS    CLOUDY    44  38  79 N12       29.79R
CAMP DOUGLAS   MOCLDY    44  44 100 N9        29.79R
$$

WIZ011>013-019>022-031-037>040-048>050-041000-
NORTHEAST WISCONSIN

CITY           SKY/WX    TMP DP  RH WIND       PRES   REMARKS
ANTIGO         MOCLDY    38  35  89 N9        29.76S WCI  31
SHAWANO        CLEAR     42  36  79 N7        29.75S
OCONTO         PTCLDY    42  39  89 N9G16     29.73S
STURGEON BAY   PTCLDY    41  34  75 N15       29.73S
GREEN BAY      LGT RAIN  42  37  82 N13       29.73R
MANITOWOC      CLEAR     44  41  89 N13G20    29.70R
APPLETON       PTCLDY    41  36  81 N18G26    29.71R
CLINTONVILLE   CLEAR     41  37  87 N7        29.76R
OSHKOSH        PTCLDY    44  39  82 N15       29.72R
$$

WIZ032>034-041-042-053>061-041000-
SOUTHWEST WISCONSIN

CITY           SKY/WX    TMP DP  RH WIND       PRES   REMARKS
LA CROSSE      PTCLDY    48  39  71 N13G23    29.82R
SPARTA         MOCLDY    44  41  89 N7G18     29.82R
VIROQUA        MOCLDY    45  43  93 N13       29.78R
BOSCOBEL       FOG       43  42  97 CALM      29.77R VSB 1/4
PRAIRIE DU CHI CLEAR     47  46  95 NW8       29.77R
PLATTEVILLE    CLEAR     45  45 100 N8        29.74R
$$

WIZ056-057-062-063-064-067-068-041000-
SOUTH CENTRAL WISCONSIN

CITY           SKY/WX    TMP DP  RH WIND       PRES   REMARKS
REEDSBURG      MOCLDY    46  43  90 N12G17    29.75R
BARABOO/DELLS  MOCLDY    44  42  91 N10       29.75R
LONE ROCK      CLEAR     48  43  82 N13       29.76R
MINERAL POINT  CLEAR     45  45 100 N6        29.74R
MADISON        CLEAR     45  43  93 N8        29.71R
MIDDLETON      CLEAR     47  44  89 N12       29.72R
WATERTOWN      CLEAR     44  44 100 N9        29.69R
MONROE         CLEAR     45  45 100 NW9       29.70R
JANESVILLE     CLEAR     45  43  93 N8        29.68R
$$

WIZ051-052-058>065-066-070>072-041000-
SOUTHEAST WISCONSIN

CITY           SKY/WX    TMP DP  RH WIND       PRES   REMARKS
MILWAUKEE      CLOUDY    46  40  79 N22G30    29.67R
WAUKESHA       CLOUDY    45  43  93 N8        29.68R
MILWAUKEE/TIMM CLOUDY    46  37  71 N13G23    29.68R
RACINE         LGT RAIN  47  44  90 N20G36    29.68R
BURLINGTON     CLOUDY    46  45  99 N9        29.66S
KENOSHA        CLOUDY    48  46  93 N7        29.65S
FOND DU LAC    MOCLDY    46  39  76 N17G26    29.72R
SHEBOYGAN      CLEAR     45  40  82 N10       29.68R
WEST BEND      PTCLDY    45  41  87 N7        29.68S
JUNEAU         PTCLDY    44  42  94 N10       29.72R
$$

LSZ147-162-041000-
LAKE SUPERIOR

STATION/POSITION TIME  TEMP    WIND        PRES    WAVE
                       AIR SEA DIR/SP/G            HT/PER
                 (UTC) (F)     (DEG/KT/KT) (MB)    (FT/S)
W MID LAKE BUOY  0850   39 37  360/  6/  8 1011.6R   1/ 4
DEVILS ISLAND    0800   45     350/ 13/ 14 1012.0R
SAXON HARBOR     0840   38     190/  3/  3 1010.8R
$$

LMZ867-665-643>646-041000-
LAKE MICHIGAN

STATION/POSITION TIME  TEMP    WIND        PRES    WAVE
                       AIR SEA DIR/SP/G            HT/PER
                 (UTC) (F)     (DEG/KT/KT) (MB)    (FT/S)
CHAMBERS ISLAND  0800   42     320/ 17/ 21 1006.1F
N MID LAKE BUOY  0850   40 38  320/ 17/ 19 1004.3S   3/ 4
NORTHPORT PIER   0800   41     330/ 19/ 23 1005.8S
ALGOMA LAKESHORE 0815          340/ 14/ 19   N/A
KEWAUNEE LAKESHO 0800   44     360/ 10/ 20 1004.8S
SHEBOYGAN LAKESH 0900   45     360/ 16/ 20 1005.4R
PORT WASHINGTON  0800   49      30/ 16/ 24 1005.4R
S MID LAKE BUOY  0850   43 41   10/ 12/ 14 1002.6R   1/ 3
KENOSHA   LAKESH 0900   47      20/ 13/ 13 1004.1S
$$

TC  - TEMPERATURE IN CELSIUS
VSB - VISIBILITY IN STATUTE MILES
WCI - WIND CHILL INDEX
HX  - HEAT INDEX





USA.gov is the U.S. government's official web portal to all federal, state and local government web resources and services.